1498233600.99,23089,19.88,73642.5,5.35,4.79,4.79,0,*7E
1498233602.22,23090,19.88,73648.0,5.37,4.93,5.01,0,*7E
1498233603.46,23091,19.88,73664.5,5.37,4.93,4.93,0,*75
1498233604.7,23092,19.88,73672.5,5.37,4.93,5.01,0,*7C
1498233605.92,23093,19.88,73678.8,5.41,4.97,5.05,0,*7C
1498233607.1,23094,19.88,73692.5,5.41,5.15,5.15,0,*71
1498233608.28,23095,19.88,73686.5,5.37,5.23,5.15,0,*74
1498233609.47,23096,19.88,73684.8,5.41,5.27,5.29,0,*7D
1498233610.63,23097,19.88,73682.5,5.41,5.29,5.29,0,*72
1498233611.85,23098,19.88,73668.8,5.41,5.27,5.27,0,*7D
1498233613.02,23099,19.88,73664.5,5.41,5.15,5.15,0,*7C
1498233614.2,23100,19.88,73662.0,5.41,5.07,5.19,0,*72
1498233615.39,23101,19.88,73684.3,5.41,5.19,5.15,0,*70
1498233616.56,23102,19.88,73702.5,5.41,5.07,5.07,0,*7F
1498233617.77,23103,19.88,73688.5,5.41,5.19,5.27,0,*73
1498233618.97,23104,19.88,73672.5,5.43,5.07,5.07,0,*7B
1498233620.2,23105,19.88,73640.3,5.43,4.75,4.85,0,*75
1498233621.43,23106,19.88,73636.5,5.41,4.93,4.93,0,*7B
1498233622.63,23107,19.88,73664.5,5.43,4.85,4.89,0,*74
1498233623.8,23108,19.88,73672.5,5.41,4.49,4.49,0,*75
1498233624.97,23109,19.88,73686.8,5.41,4.11,4.15,0,*70
1498233626.2,23110,19.88,73698.0,5.41,4.05,4.01,0,*78
1498233627.42,23111,19.88,73672.5,5.41,4.01,4.01,0,*7D
1498233628.65,23112,19.88,73686.5,5.41,4.05,4.01,0,*7A
1498233629.85,23113,19.88,73640.3,5.37,4.11,4.01,0,*7F
1498233631.07,23114,19.88,73626.0,5.37,4.01,3.97,0,*71
1498233632.3,23115,19.88,73608.5,5.37,4.63,4.63,0,*78
1498233633.48,23116,19.88,73612.5,5.37,4.45,4.33,0,*7A
1498233634.68,23117,19.88,73600.8,5.41,4.11,4.01,0,*7A
1498233635.9,23118,19.88,73596.3,5.37,4.01,4.01,0,*75
1498233637.12,23119,19.88,73608.8,5.35,4.37,4.37,0,*76
1498233638.37,23120,19.88,73608.8,5.35,4.59,4.59,0,*7C
1498233639.58,23121,19.88,73626.3,5.37,4.81,4.93,0,*7C
1498233640.79,23122,19.88,73606.5,5.37,4.89,4.93,0,*77
1498233641.99,23123,19.88,73612.5,5.41,5.05,5.15,0,*7D
1498233643.18,23124,19.88,73614.8,5.41,5.27,5.29,0,*75
1498233644.35,23125,19.88,73628.8,5.41,5.29,5.29,0,*7A
1498233645.52,23126,19.88,73648.5,5.41,5.41,5.41,0,*79
1498233646.69,23127,19.88,73642.0,5.41,5.37,5.41,0,*79
1498233647.91,23128,19.88,73656.0,5.43,4.53,4.59,0,*7F
1498233649.11,23129,19.88,73660.3,5.41,4.01,3.89,0,*71
1498233650.34,23130,19.88,73648.0,5.41,2.59,2.13,0,*70
1498233651.54,23131,19.88,73632.0,5.37,2.43,2.31,0,*7B
1498233652.75,23132,19.88,73622.3,5.35,2.65,2.65,0,*7F
1498233653.96,23133,19.88,73618.5,5.35,2.99,2.95,0,*72
1498233655.16,23134,19.88,73498.8,5.33,3.25,3.33,0,*78
1498233656.36,23135,19.88,73506.3,5.29,3.23,3.29,0,*7F
1498233657.56,23136,19.88,73618.5,5.29,4.05,4.11,0,*73
1498233658.74,23137,19.88,73582.5,5.29,4.27,4.23,0,*73
1498233659.92,23138,19.88,73606.0,5.29,4.57,4.57,0,*78
1498233661.11,23139,19.88,73594.0,5.31,4.49,4.49,0,*70
1498233662.31,23140,19.88,73620.0,5.31,4.45,4.45,0,*7E
1498233663.51,23141,19.88,73630.8,5.31,4.57,4.57,0,*7F
1498233664.72,23142,19.88,73640.0,5.31,4.81,4.85,0,*78
1498233665.91,23143,19.88,73620.5,5.31,4.85,4.81,0,*79
1498233667.18,23144,19.88,73654.8,5.31,4.71,4.71,0,*7A
1498233668.44,23145,19.88,73646.8,5.31,4.71,4.71,0,*7B
1498233669.7,23146,19.88,73676.8,5.31,4.63,4.75,0,*7F
1498233670.93,23147,19.88,73644.5,5.31,4.05,4.11,0,*7C
1498233672.13,23148,19.88,73638.5,5.31,4.11,4.11,0,*76
1498233673.33,23149,19.88,73658.3,5.31,4.49,4.57,0,*78
1498233674.55,23150,19.88,73662.8,5.33,3.97,3.97,0,*7D
1498233675.8,23151,19.88,73688.3,5.31,4.63,4.63,0,*7E
1498233677.06,23152,19.88,73706.0,5.31,4.63,4.63,0,*7D
1498233678.29,23153,19.88,73702.3,5.33,3.79,3.71,0,*76
1498233679.51,23154,19.88,73696.3,5.33,3.33,3.33,0,*79
1498233680.74,23155,19.88,73676.8,5.31,3.75,3.63,0,*7D
1498233681.97,23156,19.88,73698.8,5.29,3.41,3.45,0,*74
1498233683.15,23157,19.88,73710.8,5.25,3.63,3.59,0,*74
1498233684.32,23158,19.88,73712.8,5.25,3.85,3.85,0,*72
1498233685.55,23159,19.88,73734.0,5.23,3.75,3.75,0,*75
1498233686.73,23160,19.88,73710.3,5.25,3.85,3.85,0,*79
1498233687.9,23161,19.88,73710.8,5.25,4.11,4.11,0,*78
1498233689.09,23162,19.88,73716.0,5.25,4.33,4.33,0,*7B
1498233690.27,23163,19.88,73728.0,5.25,4.53,4.57,0,*7E
1498233691.49,23164,19.88,73704.8,5.25,3.97,3.97,0,*7D
1498233692.72,23165,19.88,73726.8,5.25,3.97,3.97,0,*7C
1498233693.9,23166,19.88,73722.5,5.25,3.89,3.89,0,*7F
1498233695.13,23167,19.88,73718.0,5.23,3.67,3.67,0,*78
1498233696.31,23168,19.88,73714.0,5.23,3.81,3.81,0,*77
1498233697.49,23169,19.88,73712.3,5.23,3.93,3.93,0,*76
1498233698.72,23170,19.88,73710.8,5.23,3.75,3.71,0,*7A
1498233699.89,23171,19.88,73714.0,5.19,3.55,3.55,0,*76
1498233701.09,23172,19.88,73712.3,5.21,3.85,3.81,0,*7A
1498233702.29,23173,19.88,73712.0,5.21,4.37,4.37,0,*7F
1498233703.48,23174,19.88,73706.3,5.21,4.49,4.49,0,*78
1498233704.68,23175,19.88,73704.0,5.21,4.53,4.49,0,*72
1498233705.86,23176,19.88,73714.5,5.19,4.49,4.53,0,*7A
1498233707.06,23177,19.88,73712.0,5.21,4.37,4.37,0,*7B
1498233708.27,23178,19.88,73714.5,5.21,4.37,4.37,0,*74
1498233709.46,23179,19.88,73734.0,5.21,4.41,4.49,0,*7D
1498233710.66,23180,19.88,73726.0,5.21,3.85,3.93,0,*74
1498233711.89,23181,19.88,73722.0,5.21,3.67,3.59,0,*7F
1498233713.14,23182,19.88,73718.3,5.21,3.71,3.71,0,*71
1498233714.32,23183,19.88,73712.0,5.19,3.93,3.93,0,*7B
1498233715.51,23184,19.88,73710.3,5.19,3.89,3.93,0,*77
1498233716.74,23185,19.88,73702.5,5.19,4.05,4.05,0,*7D
1498233717.96,23186,19.88,73710.3,5.19,4.01,4.01,0,*7E
1498233719.19,23187,19.88,73716.5,5.21,3.93,3.97,0,*70
1498233720.36,23188,19.88,73722.3,5.19,4.11,4.11,0,*70
1498233721.54,23189,19.88,73722.5,5.19,4.11,4.15,0,*75
1498233722.72,23190,19.88,73726.8,5.19,4.27,4.23,0,*7D
1498233723.91,23191,19.88,73720.3,5.19,4.37,4.37,0,*78
1498233725.09,23192,19.88,73720.0,5.19,4.33,4.33,0,*7B
1498233726.27,23193,19.88,73716.5,5.19,4.33,4.37,0,*7E
1498233727.46,23194,19.88,73716.0,5.19,4.37,4.45,0,*78
1498233728.69,23195,19.88,73710.0,5.21,4.31,4.37,0,*71
1498233729.87,23196,19.88,73708.8,5.19,4.45,4.33,0,*7E
1498233731.04,23197,19.88,73706.8,5.19,4.49,4.45,0,*72
1498233732.24,23198,19.88,73710.5,5.21,4.57,4.53,0,*7E
1498233733.46,23199,19.88,73714.0,5.21,4.57,4.63,0,*7C
1498233734.72,23200,19.88,73714.5,5.21,4.63,4.75,0,*7F
1498233735.92,23201,19.88,73714.5,5.23,4.57,4.63,0,*7C
1498233737.12,23202,19.88,73718.0,5.21,4.53,4.53,0,*7A
1498233738.31,23203,19.88,73708.8,5.21,4.49,4.49,0,*7B
1498233739.51,23204,19.88,73674.5,5.21,4.57,4.57,0,*7C
1498233740.73,23205,19.88,73672.5,5.21,4.63,4.57,0,*7A
1498233741.92,23206,19.88,73668.3,5.21,4.49,4.49,0,*7E
1498233743.13,23207,19.88,73662.8,5.21,4.37,4.37,0,*7F
1498233744.33,23208,19.88,73664.5,5.21,4.41,4.49,0,*78
1498233745.53,23209,19.88,73680.5,5.21,4.41,4.41,0,*71
1498233746.72,23210,19.88,73694.3,5.21,4.27,4.27,0,*79
1498233747.98,23211,19.88,73692.0,5.21,3.75,3.75,0,*78
1498233749.21,23212,19.88,73692.3,5.19,3.79,3.79,0,*70
1498233750.38,23213,19.88,73692.5,5.19,4.23,4.23,0,*71
1498233751.59,23214,19.88,73690.8,5.19,4.15,4.05,0,*77
1498233752.81,23215,19.88,73710.8,5.19,4.01,4.01,0,*77
1498233754.03,23216,19.88,73718.3,5.19,4.01,4.01,0,*74
1498233755.24,23217,19.88,73702.0,5.17,4.27,4.23,0,*7F
1498233756.46,23218,19.88,73696.0,5.17,4.01,3.93,0,*78
1498233757.71,23219,19.88,73706.8,5.17,3.79,3.79,0,*75
1498233758.97,23220,19.88,73692.8,5.17,3.71,3.71,0,*7F
1498233760.19,23221,19.88,73706.0,5.17,3.63,3.53,0,*7D
1498233761.36,23222,19.88,73696.3,5.15,3.59,3.59,0,*7F
1498233762.56,23223,19.88,73696.5,5.13,3.59,3.59,0,*78
1498233763.79,23224,19.88,73682.8,5.15,3.75,3.67,0,*7A
1498233765.01,23225,19.88,73666.5,5.13,3.97,3.85,0,*7D
1498233766.26,23226,19.88,73678.0,5.13,4.31,4.31,0,*7D
1498233767.46,23227,19.88,73670.3,5.13,4.49,4.41,0,*74
1498233768.65,23228,19.88,73674.0,5.13,4.49,4.57,0,*7C
1498233769.9,23229,19.88,73674.5,5.13,4.59,4.59,0,*72
1498233771.16,23230,19.88,73670.8,5.17,4.71,4.63,0,*7D
1498233772.37,23231,19.88,73668.8,5.15,4.57,4.59,0,*73
1498233773.54,23232,19.88,73668.3,5.15,4.57,4.49,0,*71
1498233774.74,23233,19.88,73670.5,5.17,4.53,4.49,0,*76
1498233775.96,23234,19.88,73686.0,5.17,4.53,4.59,0,*70
1498233777.22,23235,19.88,73680.5,5.17,4.71,4.63,0,*78
1498233778.42,23236,19.88,73690.3,5.17,4.49,4.49,0,*78
1498233779.67,23237,19.88,73684.8,5.17,4.59,4.59,0,*79
1498233780.85,23238,19.88,73646.8,5.15,4.33,4.45,0,*75
1498233782.06,23239,19.88,73656.0,5.17,4.37,4.37,0,*77
1498233783.29,23240,19.88,73648.3,5.17,4.53,4.63,0,*7A
1498233784.52,23241,19.88,73670.0,5.15,4.59,4.67,0,*77
1498233785.78,23242,19.88,73652.3,5.17,4.63,4.59,0,*72
1498233786.95,23243,19.88,73654.8,5.19,4.53,4.49,0,*7F
1498233788.13,23244,19.88,73646.0,5.19,4.49,4.53,0,*78
1498233789.35,23245,19.88,73638.8,5.19,4.59,4.59,0,*72
1498233790.59,23246,19.88,73634.0,5.19,4.63,4.63,0,*71
1498233791.84,23247,19.88,73628.0,5.21,4.75,4.79,0,*77
1498233793.09,23248,19.88,73626.0,5.21,4.63,4.67,0,*70
1498233794.32,23249,19.88,73634.5,5.19,4.71,4.63,0,*7D
1498233795.57,23250,19.88,73640.8,5.21,4.67,4.63,0,*79
1498233796.83,23251,19.88,73642.8,5.21,4.63,4.63,0,*7C
1498233798.05,23252,19.88,73650.3,5.23,4.67,4.67,0,*7D
1498233799.3,23253,19.88,73654.8,5.21,4.63,4.63,0,*7E
1498233800.5,23254,19.88,73656.5,5.21,4.53,4.53,0,*79
1498233801.74,23255,19.88,73658.3,5.19,4.59,4.63,0,*7A
1498233802.99,23256,19.88,73648.3,5.21,4.75,4.75,0,*7B
1498233804.22,23257,19.88,73660.0,5.23,4.75,4.75,0,*78
1498233805.42,23258,19.88,73664.0,5.23,4.79,4.85,0,*74
1498233806.62,23259,19.88,73660.0,5.23,4.79,4.85,0,*75
1498233807.85,23260,19.88,73656.8,5.23,4.67,4.67,0,*7C
1498233809.1,23261,19.88,73596.3,5.21,4.63,4.63,0,*7F
1498233810.35,23262,19.88,73608.8,5.21,4.63,4.63,0,*7C
1498233811.57,23263,19.88,73628.5,5.21,4.57,4.63,0,*7A
1498233812.8,23264,19.88,73644.3,5.23,4.67,4.79,0,*77
1498233814.03,23265,19.88,73652.3,5.23,4.67,4.75,0,*7A
1498233815.23,23266,19.88,73656.3,5.23,4.79,4.89,0,*75
1498233816.4,23267,19.88,73658.8,5.23,4.89,4.89,0,*7B
1498233817.58,23268,19.81,73658.5,5.23,4.89,4.89,0,*74
1498233818.81,23269,19.88,73666.5,5.25,5.01,5.01,0,*73
1498233820.04,23270,19.88,73670.5,5.23,5.01,4.97,0,*73
1498233821.25,23271,19.88,73698.8,5.23,5.01,5.07,0,*7A
1498233822.43,23272,19.88,73640.8,5.29,5.07,5.15,0,*76
1498233823.61,23273,19.81,73646.3,5.25,5.11,5.11,0,*78
1498233824.79,23274,19.88,73660.8,5.29,5.15,5.15,0,*73
1498233825.97,23275,19.81,73650.3,5.29,5.15,5.19,0,*7E
1498233827.17,23276,19.88,73678.5,5.31,5.07,5.15,0,*7B
1498233828.37,23277,19.88,73700.8,5.31,5.07,5.15,0,*7A
1498233829.63,23278,19.88,73672.3,5.31,4.97,4.93,0,*72
1498233830.87,23279,19.88,73688.8,5.31,5.05,5.07,0,*75
1498233832.07,23280,19.88,73678.3,5.31,5.07,5.07,0,*71
1498233833.27,23281,19.88,73676.0,5.29,4.85,4.93,0,*7E
1498233834.53,23282,19.88,73672.3,5.31,4.97,5.05,0,*79
1498233835.73,23283,19.88,73674.3,5.31,4.85,4.85,0,*72
1498233836.99,23284,19.88,73680.0,5.31,4.93,4.93,0,*75
1498233838.25,23285,19.88,73688.5,5.31,4.93,4.93,0,*74
1498233839.48,23286,19.88,73702.3,5.33,4.75,4.79,0,*79
1498233840.74,23287,19.88,73698.3,5.35,4.79,4.75,0,*7E
1498233841.91,23288,19.88,73696.5,5.33,4.49,4.53,0,*70
1498233843.14,23289,19.88,73700.8,5.33,4.31,4.31,0,*7A
1498233844.34,23290,19.88,73708.8,5.33,4.31,4.27,0,*75
1498233845.55,23291,19.88,73704.5,5.31,4.37,4.45,0,*74
1498233846.74,23292,19.88,73688.5,5.31,4.33,4.27,0,*77
1498233847.95,23293,19.88,73704.5,5.31,4.45,4.37,0,*76
1498233849.12,23294,19.88,73708.8,5.29,4.81,4.81,0,*7D
1498233850.37,23295,19.88,73720.5,5.31,4.97,5.05,0,*7F
1498233851.61,23296,19.88,73716.8,5.33,4.97,4.93,0,*70
1498233852.86,23297,19.88,73718.8,5.31,4.93,4.97,0,*73
1498233854.12,23298,19.88,73722.0,5.31,4.75,4.75,0,*78
1498233855.32,23299,19.88,73708.8,5.31,4.57,4.49,0,*76
1498233856.58,23300,19.88,73714.8,5.31,4.63,4.71,0,*7B
1498233857.81,23301,19.88,73722.3,5.31,4.85,4.97,0,*7A
1498233858.98,23302,19.88,73744.0,5.33,4.89,4.89,0,*78
1498233860.24,23303,19.88,73744.8,5.35,4.59,4.59,0,*7F
1498233861.46,23304,19.88,73740.3,5.33,4.59,4.59,0,*7E
1498233862.63,23305,19.88,73746.5,5.33,4.49,4.49,0,*7F
1498233863.84,23306,19.81,73740.0,5.33,4.07,4.05,0,*7E
1498233865.06,23307,19.88,73720.8,5.33,3.97,3.97,0,*7D
1498233866.29,23308,19.88,73672.3,5.31,4.11,4.05,0,*75
1498233867.49,23309,19.88,73670.3,5.31,4.45,4.37,0,*74
1498233868.69,23310,19.88,73666.0,5.31,4.45,4.45,0,*79
1498233869.86,23311,19.88,73674.5,5.29,4.49,4.45,0,*7D
1498233871.04,23312,19.88,73672.0,5.29,4.45,4.45,0,*72
1498233872.21,23313,19.88,73666.0,5.29,4.57,4.57,0,*73
1498233873.41,23314,19.81,73690.3,5.31,4.81,4.85,0,*79
1498233874.65,23315,19.88,73704.3,5.29,4.71,4.71,0,*75
1498233875.82,23316,19.88,73692.3,5.29,4.49,4.45,0,*7A
1498233877.05,23317,19.88,73688.5,5.29,4.63,4.63,0,*77
1498233878.31,23318,19.88,73680.8,5.31,4.75,4.75,0,*71
1498233879.54,23319,19.88,73680.0,5.29,4.63,4.63,0,*79
1498233880.79,23320,19.88,73684.5,5.31,4.59,4.63,0,*73
1498233882.05,23321,19.88,73680.5,5.31,4.75,4.71,0,*7F
1498233883.25,23322,19.88,73682.3,5.31,4.81,4.81,0,*78
1498233884.48,23323,19.88,73676.8,5.31,4.81,4.93,0,*7A
1498233885.7,23324,19.88,73700.3,5.31,4.75,4.81,0,*75
1498233886.96,23325,19.88,73692.0,5.31,4.93,4.93,0,*7F
1498233888.17,23326,19.88,73686.3,5.33,4.97,5.11,0,*71
1498233889.38,23327,19.88,73690.3,5.33,5.01,5.11,0,*7E
1498233890.56,23328,19.88,73696.0,5.33,5.07,5.11,0,*77
1498233891.74,23329,19.88,73706.3,5.33,5.11,5.11,0,*71
1498233892.92,23330,19.88,73694.0,5.33,5.11,5.19,0,*71
1498233894.14,23331,19.88,73690.3,5.35,5.19,5.23,0,*77
1498233895.35,23332,19.88,73702.0,5.35,5.19,5.23,0,*74
1498233896.57,23333,19.88,73728.5,5.35,5.11,5.19,0,*74
1498233897.75,23334,19.88,73700.3,5.33,5.19,5.19,0,*7D
1498233898.99,23335,19.88,73708.8,5.37,4.71,4.71,0,*78
1498233900.22,23336,19.88,73732.8,5.37,5.01,5.05,0,*7F
1498233901.46,23337,19.88,73716.3,5.37,5.05,5.01,0,*7E
1498233902.64,23338,19.88,73716.8,5.37,5.15,5.15,0,*75
1498233903.87,23339,19.88,73726.0,5.37,5.05,5.05,0,*74
1498233905.07,23340,19.81,73732.8,5.41,5.19,5.27,0,*76
1498233906.25,23341,19.88,73744.8,5.41,5.15,5.19,0,*76
1498233907.43,23342,19.88,73748.8,5.37,5.15,5.23,0,*7D
1498233908.61,23343,19.88,73756.0,5.41,5.19,5.15,0,*74
1498233909.78,23344,19.88,73770.0,5.41,5.29,5.29,0,*7F
1498233910.95,23345,19.88,73788.8,5.41,5.37,5.37,0,*7E
1498233912.18,23346,19.88,73766.3,5.41,4.93,5.05,0,*73
1498233913.35,23347,19.81,73764.3,5.41,4.81,4.85,0,*78
1498233914.53,23348,19.88,73762.8,5.41,5.07,5.07,0,*73
1498233915.75,23349,19.88,73750.0,5.41,5.27,5.27,0,*72
1498233916.95,23350,19.88,73742.5,5.41,4.57,4.67,0,*79
1498233918.15,23351,19.88,73730.5,5.41,2.91,2.85,0,*7E
1498233919.37,23352,19.81,73716.0,5.37,2.21,2.17,0,*7C
1498233920.57,23353,19.81,73690.8,5.33,3.49,3.55,0,*71
1498233921.75,23354,19.81,73672.3,5.33,3.85,3.93,0,*7C
1498233922.92,23355,19.88,73712.3,5.33,4.41,4.53,0,*79
1498233924.12,23356,19.81,73708.0,5.33,4.79,4.85,0,*7A
1498233925.35,23357,19.88,73720.5,5.33,4.79,4.75,0,*74
1498233926.58,23358,19.88,73718.3,5.33,4.67,4.63,0,*73
1498233927.75,23359,19.88,73704.3,5.33,4.49,4.41,0,*7E
1498233928.98,23360,19.88,73682.3,5.33,3.97,4.05,0,*70
1498233930.21,23361,19.88,73668.3,5.33,4.31,4.31,0,*7D
1498233931.38,23362,19.88,73664.0,5.33,4.19,4.07,0,*71
1498233932.57,23363,19.88,73660.8,5.33,3.93,3.93,0,*7F
1498233933.77,23364,19.88,73644.5,5.33,4.05,4.07,0,*7A
1498233934.97,23365,19.81,73630.5,5.31,4.57,4.57,0,*7B
1498233936.23,23366,19.88,73610.3,5.31,4.59,4.59,0,*78
1498233937.46,23367,19.88,73596.8,5.31,4.57,4.63,0,*7E
1498233938.71,23368,19.88,73618.3,5.31,4.75,4.75,0,*76
1498233939.97,23369,19.88,73662.0,5.31,4.75,4.75,0,*77
1498233941.2,23370,19.88,73632.8,5.31,4.81,4.75,0,*74
1498233942.43,23371,19.88,73638.3,5.33,4.79,4.79,0,*7C
1498233943.66,23372,19.88,73652.5,5.33,4.75,4.79,0,*73
1498233944.89,23373,19.88,73644.3,5.33,4.79,4.79,0,*7E
1498233946.14,23374,19.88,73664.3,5.35,4.75,4.67,0,*7C
1498233947.37,23375,19.88,73682.5,5.33,4.75,4.79,0,*74
1498233948.63,23376,19.88,73690.5,5.35,4.63,4.63,0,*7D
1498233949.86,23377,19.88,73708.3,5.33,4.63,4.63,0,*7A
1498233951.09,23378,19.81,73720.0,5.35,4.75,4.85,0,*7C
1498233952.29,23379,19.88,73730.0,5.33,4.79,4.85,0,*77
1498233953.55,23380,19.88,73722.0,5.35,4.97,5.01,0,*7A
1498233954.73,23381,19.88,73736.0,5.33,4.89,4.89,0,*73
1498233955.98,23382,19.88,73730.8,5.35,4.75,4.67,0,*75
1498233957.16,23383,19.81,73724.3,5.37,4.89,4.81,0,*7D
1498233958.39,23384,19.88,73736.3,5.35,4.53,4.59,0,*7A
1498233959.62,23385,19.88,73730.3,5.35,4.79,4.85,0,*72
1498233960.82,23386,19.88,73730.8,5.35,4.89,4.89,0,*72
1498233962.03,23387,19.88,73742.8,5.37,4.89,4.79,0,*7E
1498233963.24,23388,19.88,73736.8,5.37,4.31,4.33,0,*7C
1498233964.49,23389,19.88,73738.0,5.35,4.67,4.79,0,*72
1498233965.75,23390,19.88,73744.0,5.35,4.63,4.67,0,*71
1498233967.01,23391,19.88,73732.5,5.35,4.67,4.63,0,*70
1498233968.26,23392,19.88,73738.5,5.35,4.79,4.79,0,*77
1498233969.5,23393,19.88,73742.3,5.37,5.01,4.93,0,*7E
1498233970.73,23394,19.81,73748.3,5.35,4.79,4.85,0,*72
1498233971.96,23395,19.88,73748.3,5.37,5.05,5.05,0,*72
1498233973.17,23396,19.88,73746.8,5.37,4.89,5.01,0,*70
1498233974.34,23397,19.88,73746.5,5.37,4.81,4.81,0,*70
1498233975.58,23398,19.88,73758.8,5.41,4.93,4.97,0,*7A
1498233976.77,23399,19.88,73756.3,5.41,4.93,4.81,0,*7C
1498233978.01,23400,19.81,73746.3,5.37,4.71,4.71,0,*79
1498233979.22,23401,19.88,73746.3,5.37,4.07,4.01,0,*7E
1498233980.4,23402,19.88,73740.3,5.37,3.89,3.85,0,*77
1498233981.62,23403,19.88,73744.0,5.37,4.01,4.01,0,*7A
1498233982.83,23404,19.88,73744.5,5.35,4.37,4.41,0,*7E
1498233984.03,23405,19.81,73716.0,5.35,4.27,4.27,0,*7E
1498233985.21,23406,19.88,73720.5,5.33,4.27,4.27,0,*7B
1498233986.41,23407,19.81,73728.0,5.35,4.15,4.15,0,*7C
1498233987.59,23408,19.81,73730.0,5.33,4.15,4.15,0,*75
1498233988.76,23409,19.81,73724.5,5.33,4.53,4.49,0,*7F
1498233989.93,23410,19.88,73724.3,5.33,4.53,4.49,0,*77
1498233991.11,23411,19.88,73722.3,5.33,4.41,4.37,0,*7C
1498233992.28,23412,19.88,73696.3,5.33,4.49,4.49,0,*7E
1498233993.45,23413,19.88,73672.8,5.33,4.41,4.49,0,*77
1498233994.68,23414,19.88,73680.5,5.33,4.75,4.75,0,*78
1498233995.86,23415,19.81,73694.0,5.33,4.85,4.85,0,*79
1498233997.08,23416,19.81,73718.3,5.33,4.79,4.79,0,*7A
1498233998.28,23417,19.81,73716.8,5.33,4.79,4.85,0,*78
1498233999.54,23418,19.88,73712.0,5.35,4.63,4.67,0,*76
1498234000.77,23419,19.81,73708.0,5.33,4.63,4.63,0,*75
1498234002.03,23420,19.81,73712.8,5.35,4.97,4.97,0,*79
1498234003.24,23421,19.88,73722.5,5.37,5.07,5.01,0,*7C
1498234004.47,23422,19.88,73716.8,5.33,4.67,4.67,0,*7D
1498234005.69,23423,19.81,73734.0,5.33,4.63,4.63,0,*7C
1498234006.9,23424,19.88,73732.5,5.35,4.89,4.89,0,*7D
1498234008.16,23425,19.81,73722.8,5.35,4.79,4.75,0,*70
1498234009.33,23426,19.88,73730.0,5.33,4.89,4.89,0,*79
1498234010.59,23427,19.88,73732.0,5.35,4.67,4.75,0,*7D
1498234011.79,23428,19.88,73738.0,5.35,4.49,4.49,0,*71
1498234012.99,23429,19.88,73734.5,5.35,4.15,4.27,0,*71
1498234014.2,23430,19.88,73722.8,5.35,4.53,4.53,0,*78
1498234015.42,23431,19.88,73702.5,5.33,4.63,4.63,0,*7F
1498234016.65,23432,19.88,73700.8,5.33,4.79,4.97,0,*7C
1498234017.86,23433,19.88,73712.3,5.35,4.89,4.89,0,*7B
1498234019.09,23434,19.81,73720.3,5.35,4.89,4.79,0,*73
1498234020.35,23435,19.81,73714.8,5.35,5.01,5.01,0,*7D
1498234021.54,23436,19.88,73698.0,5.41,5.19,5.19,0,*7D
1498234022.73,23437,19.81,73684.3,5.37,5.23,5.23,0,*7D
1498234023.91,23438,19.88,73708.0,5.37,5.23,5.23,0,*72
1498234025.12,23439,19.88,73706.0,5.37,5.23,5.27,0,*77
1498234026.29,23440,19.88,73714.5,5.41,5.15,5.19,0,*70
1498234027.47,23441,19.81,73714.3,5.41,5.07,5.07,0,*7D
1498234028.7,23442,19.88,73718.8,5.41,5.05,5.05,0,*7E
1498234029.88,23443,19.81,73724.0,5.41,5.15,5.15,0,*7F
1498234031.04,23444,19.81,73730.3,5.41,5.29,5.29,0,*78
1498234032.25,23445,19.88,73726.0,5.41,5.19,5.27,0,*74
1498234033.42,23446,19.81,73720.3,5.41,5.07,5.07,0,*7A
1498234034.6,23447,19.81,73720.8,5.41,5.07,5.15,0,*78
1498234035.82,23448,19.81,73716.0,5.41,5.27,5.27,0,*74
1498234036.99,23449,19.88,73718.3,5.41,5.15,5.15,0,*75
1498234038.18,23450,19.81,73710.8,5.41,5.19,5.19,0,*7D
1498234039.39,23451,19.81,73706.3,5.43,5.23,5.23,0,*7E
1498234040.55,23452,19.81,73706.3,5.41,5.29,5.29,0,*7F
1498234041.75,23453,19.88,73706.8,5.43,5.29,5.33,0,*77
1498234042.95,23454,19.88,73702.5,5.43,5.33,5.33,0,*7B
1498234044.12,23455,19.81,73692.5,5.45,5.37,5.37,0,*7C
1498234045.32,23456,19.81,73690.0,5.45,5.27,5.33,0,*7A
1498234046.52,23457,19.81,73686.5,5.45,5.23,5.27,0,*7A
1498234047.7,23458,19.88,73688.5,5.45,5.23,5.23,0,*71
1498234048.91,23459,19.88,73690.3,5.49,5.27,5.27,0,*7C
1498234050.1,23460,19.88,73692.3,5.45,5.23,5.23,0,*7A
1498234051.28,23461,19.88,73698.0,5.45,5.23,5.23,0,*7B
1498234052.48,23462,19.88,73698.8,5.49,5.05,5.11,0,*71
1498234053.71,23463,19.81,73702.5,5.45,4.79,4.79,0,*79
1498234054.94,23464,19.88,73706.8,5.45,4.93,4.93,0,*7E
1498234056.15,23465,19.88,73714.5,5.49,5.05,5.11,0,*76
1498234057.32,23466,19.88,73712.8,5.49,5.15,5.15,0,*70
1498234058.49,23467,19.81,73712.5,5.49,5.15,5.15,0,*71
1498234059.69,23468,19.81,73720.0,5.51,5.15,5.15,0,*77
1498234060.87,23469,19.81,73724.8,5.45,5.11,5.11,0,*73
1498234062.08,23470,19.81,73730.5,5.51,5.19,5.19,0,*7E
1498234063.29,23471,19.81,73740.5,5.51,5.19,5.19,0,*7F
1498234064.47,23472,19.88,73750.3,5.49,5.15,5.11,0,*71
1498234065.65,23473,19.88,73754.3,5.45,5.23,5.23,0,*78
1498234066.82,23474,19.88,73742.8,5.49,5.11,5.15,0,*77
1498234068.06,23475,19.81,73742.8,5.49,5.01,5.01,0,*72
1498234069.28,23476,19.88,73736.0,5.49,5.01,4.93,0,*7B
1498234070.46,23477,19.88,73734.3,5.45,4.89,4.89,0,*7C
1498234071.69,23478,19.88,73730.8,5.45,5.01,4.93,0,*79
1498234072.87,23479,19.88,73730.0,5.45,5.15,5.11,0,*76
1498234074.08,23480,19.88,73736.8,5.51,5.19,5.19,0,*71
1498234075.28,23481,19.81,73742.0,5.51,5.07,5.07,0,*70
1498234076.46,23482,19.88,73734.0,5.49,4.53,4.53,0,*7A
1498234077.66,23483,19.81,73722.8,5.49,4.23,4.31,0,*78
1498234078.88,23484,19.88,73724.5,5.49,4.63,4.67,0,*78
1498234080.05,23485,19.81,73716.5,5.49,4.81,4.81,0,*7D
1498234081.25,23486,19.88,73712.0,5.49,4.89,4.93,0,*75
1498234082.48,23487,19.88,73720.0,5.49,4.93,5.01,0,*75
1498234083.68,23488,19.88,73720.3,5.45,4.79,4.89,0,*73
1498234084.9,23489,19.81,73708.5,5.49,5.01,5.05,0,*75
1498234086.08,23490,19.81,73716.3,5.45,5.15,5.11,0,*71
1498234087.29,23491,19.81,73702.3,5.51,5.19,5.19,0,*71
1498234088.49,23492,19.88,73706.8,5.51,5.15,5.15,0,*72
1498234089.67,23493,19.88,73700.0,5.49,5.15,5.11,0,*7E
1498234090.89,23494,19.88,73688.8,5.49,5.05,5.05,0,*7D
1498234092.15,23495,19.88,73698.0,5.51,4.93,4.93,0,*75
1498234093.32,23496,19.88,73706.5,5.45,4.81,4.81,0,*73
1498234094.54,23497,19.81,73710.3,5.49,4.79,4.79,0,*7E
1498234095.77,23498,19.88,73706.8,5.45,4.79,4.79,0,*7D
1498234096.94,23499,19.88,73700.8,5.45,4.81,4.81,0,*7C
1498234098.17,23500,19.81,73706.0,5.49,5.01,4.93,0,*7B
1498234099.4,23501,19.81,73704.3,5.49,4.93,5.01,0,*7A
1498234100.62,23502,19.88,73714.3,5.49,5.05,5.05,0,*73
1498234101.8,23503,19.88,73716.0,5.45,5.15,5.15,0,*7E
1498234103.02,23504,19.88,73712.5,5.51,5.15,5.27,0,*7D
1498234104.23,23505,19.88,73712.0,5.51,5.19,5.19,0,*7D
1498234105.48,23506,19.88,73708.8,5.51,5.27,5.27,0,*7E
1498234106.66,23507,19.88,73706.5,5.53,5.19,5.19,0,*7D
1498234107.91,23508,19.81,73690.5,5.51,5.05,4.97,0,*7A
1498234109.12,23509,19.88,73690.8,5.51,5.15,5.19,0,*7D
1498234110.33,23510,19.81,73680.8,5.51,5.19,5.19,0,*79
1498234111.52,23511,19.88,73684.0,5.51,5.37,5.37,0,*78
1498234112.72,23512,19.88,73690.5,5.51,5.29,5.37,0,*74
1498234113.96,23513,19.88,73692.3,5.51,5.27,5.27,0,*7A
1498234115.13,23514,19.88,73698.0,5.53,4.89,4.89,0,*7F
1498234116.34,23515,19.81,73702.3,5.53,5.01,5.11,0,*7F
1498234117.53,23516,19.81,73706.8,5.51,4.81,4.81,0,*7F
1498234118.76,23517,19.88,73714.3,5.53,4.75,4.75,0,*7C
1498234119.99,23518,19.88,73716.0,5.51,4.85,4.93,0,*76
1498234121.19,23519,19.88,73720.8,5.51,4.81,4.81,0,*70
1498234122.44,23520,19.88,73728.8,5.51,4.71,4.79,0,*72
1498234123.65,23521,19.81,73730.0,5.49,4.31,4.33,0,*70
1498234124.87,23522,19.81,73726.8,5.49,4.63,4.63,0,*71
1498234126.1,23523,19.88,73730.3,5.53,4.75,4.75,0,*7B
1498234127.35,23524,19.81,73732.5,5.51,4.97,5.05,0,*74